DW7346 Weather Reports


time (UTC)temp
C
wind
direction
speed
KPH
gust
KPH
rain 1hr
cm
rain 24hr
cm
rain mn
cm
humidity
%
barometer
mb
20260906224549 38 117 4.8 11.3 0.00 0.00 0.00 43 1007.5
20260906223047 38 154 1.6 11.3 0.00 0.00 0.00 45 1007.6
20260906221549 37 94 1.6 11.3 0.00 0.00 0.00 44 1007.7
20260906220118 38 67 1.6 8.0 0.00 0.00 0.00 44 1007.6
20260906214542 37 186 1.6 11.3 0.00 0.00 0.00 46 1007.8
20260906213047 37 73 4.8 11.3 0.00 0.00 0.00 45 1007.9
20260906211540 37 70 0.0 9.7 0.00 0.00 0.00 48 1008.2
20260906210052 37 96 1.6 6.4 0.00 0.00 0.00 47 1008.5
20260906204531 37 127 1.6 14.5 0.00 0.00 0.00 46 1008.7
20260906203033 37 82 3.2 11.3 0.00 0.00 0.00 48 1008.8
20260906201523 37 143 1.6 9.7 0.00 0.00 0.00 49 1008.9
20260906200034 37 148 3.2 11.3 0.00 0.00 0.00 49 1009.1
20260906194517 37 141 3.2 9.7 0.00 0.00 0.00 49 1009.2
20260906193017 36 110 3.2 8.0 0.00 0.00 0.00 50 1009.4
20260906191516 36 25 3.2 12.9 0.00 0.00 0.00 51 1009.7
20260906190014 36 174 1.6 8.0 0.00 0.00 0.00 52 1009.6
20260906184514 36 92 3.2 11.3 0.00 0.00 0.00 52 1009.9
20260906183027 36 105 1.6 12.9 0.00 0.00 0.00 52 1010.0
20260906181511 36 160 3.2 11.3 0.00 0.00 0.00 53 1010.3
20260906180010 36 119 0.0 12.9 0.00 0.00 0.00 54 1010.4
20260906174507 35 37 0.0 12.9 0.00 0.00 0.00 55 1010.7
20260906173011 35 224 0.0 11.3 0.00 0.00 0.00 57 1010.9
20260906171503 35 120 1.6 6.4 0.00 0.00 0.00 58 1011.2
20260906170100 35 94 3.2 8.0 0.00 0.00 0.00 59 1011.2
20260906164600 34 100 1.6 11.3 0.00 0.00 0.00 61 1011.4
20260906163058 33 66 4.8 11.3 0.00 0.00 0.00 61 1011.5
20260906161601 33 142 1.6 8.0 0.00 0.00 0.00 63 1011.5
20260906160053 33 87 3.2 11.3 0.00 0.00 0.00 64 1011.5
20260906154544 32 113 0.0 3.2 0.00 0.00 0.00 67 1011.5
20260906153044 32 126 1.6 8.0 0.00 0.00 0.00 68 1011.3
20260906151536 32 70 1.6 6.4 0.00 0.00 0.00 71 1011.1
20260906150047 31 60 1.6 6.4 0.00 0.00 0.00 72 1011.0
20260906144536 30 108 0.0 6.4 0.00 0.00 0.00 74 1010.9
20260906143034 30 78 1.6 6.4 0.00 0.00 0.00 76 1010.9
20260906141534 28 67 0.0 4.8 0.00 0.00 0.00 79 1011.1
20260906140023 28 77 0.0 0.0 0.00 0.00 0.00 81 1011.1
20260906134520 27 79 0.0 0.0 0.00 0.00 0.00 83 1011.1
20260906133020 27 79 0.0 3.2 0.00 0.00 0.00 85 1011.1
20260906131526 26 172 0.0 3.2 0.00 0.00 0.00 87 1011.1
20260906130032 26 157 0.0 0.0 0.00 0.00 0.00 88 1010.9
20260906124516 25 188 0.0 0.0 0.00 0.00 0.00 87 1010.8
20260906123014 25 188 0.0 0.0 0.00 0.00 0.00 86 1010.7
20260906121514 26 188 0.0 0.0 0.00 0.00 0.00 86 1010.6
20260906120010 26 188 0.0 0.0 0.00 0.00 0.00 86 1010.5
20260906114513 26 188 0.0 1.6 0.00 0.00 0.00 86 1010.4
20260906113008 26 189 0.0 1.6 0.00 0.00 0.00 85 1010.2
20260906111505 26 189 0.0 3.2 0.00 0.00 0.00 85 1010.1
20260906110007 26 191 0.0 1.6 0.00 0.00 0.00 85 1010.1
20260906104508 26 191 0.0 1.6 0.00 0.00 0.00 84 1009.8
20260906103001 26 191 0.0 0.0 0.00 0.00 0.00 84 1009.8
20260906101600 26 191 0.0 0.0 0.00 0.00 0.00 83 1009.9
20260906100057 26 191 0.0 0.0 0.00 0.00 0.00 83 1009.7
20260906094637 26 191 0.0 0.0 0.00 0.00 0.00 82 1009.5
20260906093103 27 191 0.0 0.0 0.00 0.00 0.00 81 1009.4
20260906091552 27 191 0.0 4.8 0.00 0.00 0.00 81 1009.4
20260906090052 27 186 1.6 4.8 0.00 0.00 0.00 81 1009.2
20260906084551 27 172 0.0 6.4 0.00 0.00 0.00 81 1009.2
20260906083054 27 145 0.0 3.2 0.00 0.00 0.00 82 1009.2
20260906081554 27 119 0.0 3.2 0.00 0.00 0.00 82 1009.1
20260906080053 27 176 0.0 3.2 0.00 0.00 0.00 81 1009.0
20260906074548 27 176 0.0 1.6 0.00 0.00 0.00 80 1009.2
20260906073045 27 176 0.0 0.0 0.00 0.00 0.00 79 1009.4
20260906071542 27 176 0.0 0.0 0.00 0.00 0.00 78 1009.5
20260906070041 28 176 0.0 1.6 0.00 0.00 0.00 77 1009.5
20260906064541 28 176 0.0 1.6 0.00 0.00 0.00 77 1009.5
20260906063041 27 179 1.6 4.8 0.00 0.00 0.00 77 1009.4
20260906061542 28 124 0.0 6.4 0.00 0.00 0.00 77 1009.4
20260906060037 28 167 0.0 3.2 0.00 0.00 0.00 76 1009.6
20260906054534 28 122 0.0 3.2 0.00 0.00 0.00 74 1009.4
20260906053032 29 191 0.0 4.8 0.00 0.00 0.00 72 1009.5
20260906051530 29 122 0.0 3.2 0.00 0.00 0.00 72 1009.6
20260906050027 29 147 0.0 1.6 0.00 0.00 0.00 71 1009.7
20260906044533 29 109 0.0 3.2 0.00 0.00 0.00 70 1009.6
20260906043026 30 142 0.0 4.8 0.00 0.00 0.00 70 1009.4
20260906041526 30 138 0.0 3.2 0.00 0.00 0.00 69 1009.5
20260906040032 30 114 0.0 8.0 0.00 0.00 0.00 67 1009.3
20260906034524 30 112 0.0 1.6 0.00 0.00 0.00 67 1009.4
20260906033024 30 111 0.0 3.2 0.00 0.00 0.00 66 1009.3
20260906031540 31 113 0.0 3.2 0.00 0.00 0.00 65 1009.5
20260906030022 31 201 0.0 11.3 0.00 0.00 0.00 64 1009.5
20260906024522 31 121 1.6 11.3 0.00 0.00 0.00 63 1009.4
20260906023021 31 30 3.2 8.0 0.00 0.00 0.00 62 1009.1
20260906021522 31 96 3.2 16.1 0.00 0.00 0.00 62 1008.7
20260906020029 32 126 1.6 8.0 0.00 0.00 0.00 61 1008.7
20260906014520 33 169 3.2 9.7 0.00 0.00 0.00 58 1008.5
20260906013020 34 53 1.6 11.3 0.00 0.00 0.00 54 1008.1
20260906011519 34 102 0.0 4.8 0.00 0.00 0.00 50 1007.6
20260906010018 35 119 0.0 6.4 0.00 0.00 0.00 49 1007.5
20260906004518 35 92 1.6 9.7 0.00 0.00 0.00 47 1007.5
20260906003024 36 148 0.0 4.8 0.00 0.00 0.00 47 1007.5
20260906001518 36 83 0.0 6.4 0.00 0.00 0.00 46 1007.5
20260906000018 37 70 1.6 6.4 0.00 0.00 0.00 44 1007.4
20260905234516 37 98 0.0 6.4 0.00 0.00 0.00 44 1007.2
20260905233017 37 80 0.0 6.4 0.00 0.00 0.00 44 1007.2
20260905231515 37 58 1.6 6.4 0.00 0.00 0.00 44 1007.3
20260905230014 37 49 0.0 4.8 0.00 0.00 0.00 44 1007.2